Time,TemperatureF,DewpointF,PressureIn,WindDirection,WindDirectionDegrees,WindSpeedMPH,WindSpeedGustMPH,Humidity,HourlyPrecipIn,Conditions,Clouds,dailyrainin,SolarRadiationWatts/m^2,SoftwareType,DateUTC
2013-09-17 00:23:00,54.0,53.0,-100.00,South,179,16.0,20.0,96,0.00,,,0.00,0.000000,,2013-09-17 05:23:00,
2013-09-17 00:34:00,54.0,53.0,-100.00,South,179,16.0,20.0,96,0.00,,,0.00,0.000000,,2013-09-17 05:34:00,
2013-09-17 00:42:00,54.0,53.0,-100.00,South,179,16.0,20.0,96,0.00,,,0.00,0.000000,,2013-09-17 05:42:00,
2013-09-17 00:52:00,54.0,53.0,-100.00,South,179,16.0,20.0,96,0.00,,,0.00,0.000000,,2013-09-17 05:52:00,
2013-09-17 01:22:00,53.0,53.0,-100.00,South,179,14.0,20.0,100,0.00,,,0.00,0.000000,,2013-09-17 06:22:00,
2013-09-17 01:32:00,53.0,53.0,-100.00,South,179,14.0,20.0,100,0.00,,,0.00,0.000000,,2013-09-17 06:32:00,
2013-09-17 01:42:00,53.0,53.0,-100.00,South,179,14.0,20.0,100,0.00,,,0.00,0.000000,,2013-09-17 06:42:00,
2013-09-17 01:52:00,53.0,53.0,-100.00,South,179,14.0,20.0,100,0.00,,,0.00,0.000000,,2013-09-17 06:52:00,
2013-09-17 02:23:00,55.0,55.0,-100.00,South,190,15.0,20.0,100,0.00,,,0.00,0.000000,,2013-09-17 07:23:00,
2013-09-17 02:32:00,55.0,55.0,-100.00,South,190,15.0,20.0,100,0.00,,,0.00,0.000000,,2013-09-17 07:32:00,
2013-09-17 02:42:00,55.0,55.0,-100.00,South,190,15.0,20.0,100,0.00,,,0.00,0.000000,,2013-09-17 07:42:00,
2013-09-17 02:52:00,55.0,55.0,-100.00,South,190,15.0,20.0,100,0.00,,,0.00,0.000000,,2013-09-17 07:52:00,
2013-09-17 03:22:00,55.0,54.0,-100.00,South,189,19.0,25.0,96,0.00,,,0.00,0.000000,,2013-09-17 08:22:00,
2013-09-17 03:32:00,55.0,54.0,-100.00,South,189,19.0,25.0,96,0.00,,,0.00,0.000000,,2013-09-17 08:32:00,
2013-09-17 03:42:00,55.0,54.0,-100.00,South,189,19.0,25.0,96,0.00,,,0.00,0.000000,,2013-09-17 08:42:00,
2013-09-17 03:52:00,55.0,54.0,-100.00,South,189,19.0,25.0,96,0.00,,,0.00,0.000000,,2013-09-17 08:52:00,
2013-09-17 04:22:00,55.0,55.0,-100.00,South,191,19.0,27.0,100,0.00,,,0.00,0.000000,,2013-09-17 09:22:00,
2013-09-17 04:33:00,55.0,55.0,-100.00,South,191,19.0,27.0,100,0.00,,,0.00,0.000000,,2013-09-17 09:33:00,
2013-09-17 04:42:00,55.0,55.0,-100.00,South,191,19.0,27.0,100,0.00,,,0.00,0.000000,,2013-09-17 09:42:00,
2013-09-17 04:53:00,55.0,55.0,-100.00,South,191,19.0,27.0,100,0.00,,,0.00,0.000000,,2013-09-17 09:53:00,
2013-09-17 05:23:00,54.0,54.0,-100.00,SSW,194,16.0,23.0,100,0.00,,,0.00,0.000000,,2013-09-17 10:23:00,
2013-09-17 05:33:00,54.0,54.0,-100.00,SSW,194,16.0,23.0,100,0.00,,,0.00,0.000000,,2013-09-17 10:33:00,
2013-09-17 05:42:00,54.0,54.0,-100.00,SSW,194,16.0,23.0,100,0.00,,,0.00,0.000000,,2013-09-17 10:42:00,
2013-09-17 05:53:00,54.0,54.0,-100.00,SSW,194,16.0,23.0,100,0.00,,,0.00,0.000000,,2013-09-17 10:53:00,
2013-09-17 06:22:00,55.0,55.0,-100.00,South,190,17.0,23.0,100,0.00,,,0.00,0.000000,,2013-09-17 11:22:00,
2013-09-17 06:33:00,55.0,55.0,-100.00,South,190,17.0,23.0,100,0.00,,,0.00,0.000000,,2013-09-17 11:33:00,
2013-09-17 06:43:00,55.0,55.0,-100.00,South,190,17.0,23.0,100,0.00,,,0.00,0.000000,,2013-09-17 11:43:00,
2013-09-17 06:52:00,55.0,55.0,-100.00,South,190,17.0,23.0,100,0.00,,,0.00,0.000000,,2013-09-17 11:52:00,
2013-09-17 07:22:00,56.0,56.0,-100.00,SSW,192,17.0,25.0,100,0.00,,,0.00,0.000000,,2013-09-17 12:22:00,
2013-09-17 07:32:00,56.0,56.0,-100.00,SSW,192,17.0,25.0,100,0.00,,,0.00,0.000000,,2013-09-17 12:32:00,
2013-09-17 07:42:00,56.0,56.0,-100.00,SSW,192,17.0,25.0,100,0.00,,,0.00,0.000000,,2013-09-17 12:42:00,
2013-09-17 07:52:00,56.0,56.0,-100.00,SSW,192,17.0,25.0,100,0.00,,,0.00,0.000000,,2013-09-17 12:52:00,
2013-09-17 08:22:00,56.0,56.0,-100.00,South,185,17.0,25.0,100,0.00,,,0.00,1.000000,,2013-09-17 13:22:00,
2013-09-17 08:32:00,56.0,56.0,-100.00,South,185,17.0,25.0,100,0.00,,,0.00,1.000000,,2013-09-17 13:32:00,
2013-09-17 08:42:00,56.0,56.0,-100.00,South,185,17.0,25.0,100,0.00,,,0.00,1.000000,,2013-09-17 13:42:00,
2013-09-17 08:52:00,56.0,56.0,-100.00,South,185,17.0,25.0,100,0.00,,,0.00,1.000000,,2013-09-17 13:52:00,
2013-09-17 09:22:00,56.0,56.0,-100.00,South,188,19.0,26.0,100,0.00,,,0.00,29.000000,,2013-09-17 14:22:00,
2013-09-17 09:32:00,56.0,56.0,-100.00,South,188,19.0,26.0,100,0.00,,,0.00,29.000000,,2013-09-17 14:32:00,
2013-09-17 09:42:00,56.0,56.0,-100.00,South,188,19.0,26.0,100,0.00,,,0.00,29.000000,,2013-09-17 14:42:00,
2013-09-17 09:52:00,56.0,56.0,-100.00,South,188,19.0,26.0,100,0.00,,,0.00,29.000000,,2013-09-17 14:52:00,
2013-09-17 10:22:00,57.0,57.0,-100.00,SSW,194,16.0,27.0,100,0.00,,,0.00,54.000000,,2013-09-17 15:22:00,
2013-09-17 10:34:00,57.0,57.0,-100.00,SSW,194,16.0,27.0,100,0.00,,,0.00,54.000000,,2013-09-17 15:34:00,
2013-09-17 10:44:00,57.0,57.0,-100.00,SSW,194,16.0,27.0,100,0.00,,,0.00,54.000000,,2013-09-17 15:44:00,
2013-09-17 10:53:00,57.0,57.0,-100.00,SSW,194,16.0,27.0,100,0.00,,,0.00,54.000000,,2013-09-17 15:53:00,
2013-09-17 11:23:00,59.0,59.0,-100.00,South,187,17.0,25.0,100,0.00,,,0.00,144.000000,,2013-09-17 16:23:00,
2013-09-17 11:32:00,59.0,59.0,-100.00,South,187,17.0,25.0,100,0.00,,,0.00,144.000000,,2013-09-17 16:32:00,
2013-09-17 11:42:00,59.0,59.0,-100.00,South,187,17.0,25.0,100,0.00,,,0.00,144.000000,,2013-09-17 16:42:00,
2013-09-17 11:53:00,59.0,59.0,-100.00,South,187,17.0,25.0,100,0.00,,,0.00,144.000000,,2013-09-17 16:53:00,
2013-09-17 12:24:00,61.0,61.0,-100.00,South,184,19.0,27.0,99,0.00,,,0.00,312.000000,,2013-09-17 17:24:00,
2013-09-17 12:34:00,61.0,61.0,-100.00,South,184,19.0,27.0,99,0.00,,,0.00,312.000000,,2013-09-17 17:34:00,
2013-09-17 12:43:00,61.0,61.0,-100.00,South,184,19.0,27.0,99,0.00,,,0.00,312.000000,,2013-09-17 17:43:00,
2013-09-17 12:53:00,61.0,61.0,-100.00,South,184,19.0,27.0,99,0.00,,,0.00,312.000000,,2013-09-17 17:53:00,
2013-09-17 13:22:00,62.0,60.0,-100.00,South,187,18.0,26.0,94,0.00,,,0.00,365.000000,,2013-09-17 18:22:00,
2013-09-17 13:32:00,62.0,60.0,-100.00,South,187,18.0,26.0,94,0.00,,,0.00,365.000000,,2013-09-17 18:32:00,
2013-09-17 13:42:00,62.0,60.0,-100.00,South,187,18.0,26.0,94,0.00,,,0.00,365.000000,,2013-09-17 18:42:00,
2013-09-17 13:52:00,62.0,60.0,-100.00,South,187,18.0,26.0,94,0.00,,,0.00,365.000000,,2013-09-17 18:52:00,
2013-09-17 14:22:00,63.0,61.0,-100.00,South,189,18.0,24.0,92,0.00,,,0.00,277.000000,,2013-09-17 19:22:00,
2013-09-17 14:32:00,63.0,61.0,-100.00,South,189,18.0,24.0,92,0.00,,,0.00,277.000000,,2013-09-17 19:32:00,
2013-09-17 14:42:00,63.0,61.0,-100.00,South,189,18.0,24.0,92,0.00,,,0.00,277.000000,,2013-09-17 19:42:00,
2013-09-17 14:52:00,63.0,61.0,-100.00,South,189,18.0,24.0,92,0.00,,,0.00,277.000000,,2013-09-17 19:52:00,
2013-09-17 15:22:00,64.0,61.0,-100.00,South,178,16.0,25.0,91,0.00,,,0.00,232.000000,,2013-09-17 20:22:00,
2013-09-17 15:32:00,64.0,61.0,-100.00,South,178,16.0,25.0,91,0.00,,,0.00,232.000000,,2013-09-17 20:32:00,
2013-09-17 15:42:00,64.0,61.0,-100.00,South,178,16.0,25.0,91,0.00,,,0.00,232.000000,,2013-09-17 20:42:00,
2013-09-17 15:52:00,64.0,61.0,-100.00,South,178,16.0,25.0,91,0.00,,,0.00,232.000000,,2013-09-17 20:52:00,
2013-09-17 16:22:00,65.0,62.0,-100.00,South,169,18.0,23.0,91,0.00,,,0.00,230.000000,,2013-09-17 21:22:00,
2013-09-17 16:34:00,65.0,62.0,-100.00,South,169,18.0,23.0,91,0.00,,,0.00,230.000000,,2013-09-17 21:34:00,
2013-09-17 16:44:00,65.0,62.0,-100.00,South,169,18.0,23.0,91,0.00,,,0.00,230.000000,,2013-09-17 21:44:00,
2013-09-17 16:54:00,65.0,62.0,-100.00,South,169,18.0,23.0,91,0.00,,,0.00,230.000000,,2013-09-17 21:54:00,
2013-09-17 17:24:00,63.0,61.0,-100.00,South,182,16.0,22.0,94,0.00,,,0.00,153.000000,,2013-09-17 22:24:00,
2013-09-17 17:33:00,63.0,61.0,-100.00,South,182,16.0,22.0,94,0.00,,,0.00,153.000000,,2013-09-17 22:33:00,
2013-09-17 17:43:00,63.0,61.0,-100.00,South,182,16.0,22.0,94,0.00,,,0.00,153.000000,,2013-09-17 22:43:00,
2013-09-17 17:53:00,63.0,61.0,-100.00,South,182,16.0,22.0,94,0.00,,,0.00,153.000000,,2013-09-17 22:53:00,
2013-09-17 18:22:00,62.0,62.0,-100.00,South,178,15.0,24.0,99,0.00,,,0.00,51.000000,,2013-09-17 23:22:00,
2013-09-17 18:34:00,62.0,62.0,-100.00,South,178,15.0,24.0,99,0.00,,,0.00,51.000000,,2013-09-17 23:34:00,
2013-09-17 18:42:00,62.0,62.0,-100.00,South,178,15.0,24.0,99,0.00,,,0.00,51.000000,,2013-09-17 23:42:00,
2013-09-17 18:52:00,62.0,62.0,-100.00,South,178,15.0,24.0,99,0.00,,,0.00,51.000000,,2013-09-17 23:52:00,
2013-09-17 19:22:00,61.0,61.0,-100.00,South,179,15.0,25.0,100,0.00,,,0.00,20.000000,,2013-09-18 00:22:00,
2013-09-17 19:32:00,61.0,61.0,-100.00,South,179,15.0,25.0,100,0.00,,,0.00,20.000000,,2013-09-18 00:32:00,
2013-09-17 19:42:00,61.0,61.0,-100.00,South,179,15.0,25.0,100,0.00,,,0.00,20.000000,,2013-09-18 00:42:00,
2013-09-17 19:52:00,61.0,61.0,-100.00,South,179,15.0,25.0,100,0.00,,,0.00,20.000000,,2013-09-18 00:52:00,
2013-09-17 20:22:00,61.0,61.0,-100.00,South,178,15.0,25.0,100,0.00,,,0.00,0.000000,,2013-09-18 01:22:00,
2013-09-17 20:32:00,61.0,61.0,-100.00,South,178,15.0,25.0,100,0.00,,,0.00,0.000000,,2013-09-18 01:32:00,
2013-09-17 20:42:00,61.0,61.0,-100.00,South,178,15.0,25.0,100,0.00,,,0.00,0.000000,,2013-09-18 01:42:00,
2013-09-17 20:52:00,61.0,61.0,-100.00,South,178,15.0,25.0,100,0.00,,,0.00,0.000000,,2013-09-18 01:52:00,
2013-09-17 21:22:00,60.0,60.0,-100.00,South,178,16.0,24.0,100,0.00,,,0.00,0.000000,,2013-09-18 02:22:00,
2013-09-17 21:32:00,60.0,60.0,-100.00,South,178,16.0,24.0,100,0.00,,,0.00,0.000000,,2013-09-18 02:32:00,
2013-09-17 21:43:00,60.0,60.0,-100.00,South,178,16.0,24.0,100,0.00,,,0.00,0.000000,,2013-09-18 02:43:00,
2013-09-17 21:52:00,60.0,60.0,-100.00,South,178,16.0,24.0,100,0.00,,,0.00,0.000000,,2013-09-18 02:52:00,
2013-09-17 22:23:00,59.0,59.0,-100.00,South,173,16.0,21.0,100,0.00,,,0.00,0.000000,,2013-09-18 03:23:00,
2013-09-17 22:35:00,59.0,59.0,-100.00,South,173,16.0,21.0,100,0.00,,,0.00,0.000000,,2013-09-18 03:35:00,
2013-09-17 22:44:00,59.0,59.0,-100.00,South,173,16.0,21.0,100,0.00,,,0.00,0.000000,,2013-09-18 03:44:00,
2013-09-17 22:54:00,59.0,59.0,-100.00,South,173,16.0,21.0,100,0.00,,,0.00,0.000000,,2013-09-18 03:54:00,
2013-09-17 23:24:00,59.0,59.0,-100.00,South,174,12.0,19.0,100,0.00,,,0.00,0.000000,,2013-09-18 04:24:00,
2013-09-17 23:34:00,59.0,59.0,-100.00,South,174,12.0,19.0,100,0.00,,,0.00,0.000000,,2013-09-18 04:34:00,
2013-09-17 23:44:00,59.0,59.0,-100.00,South,174,12.0,19.0,100,0.00,,,0.00,0.000000,,2013-09-18 04:44:00,
2013-09-17 23:54:00,59.0,59.0,-100.00,South,174,12.0,19.0,100,0.00,,,0.00,0.000000,,2013-09-18 04:54:00,